Weather History for Casa Grande, AZ

Change the Weather History Date:

Friday, October 17, 2014

  Actual Average Record
Temperature  
Mean Temperature 74 °F -  
Max Temperature 86 °F 84 °F 96 °F (2003)
Min Temperature 62 °F 56 °F 39 °F (1998)
Cooling Degree Days 9    
Growing Degree Days 24 (Base 50)    
Moisture  
Dew Point 46 °F    
Average Humidity 40    
Maximum Humidity 55    
Minimum Humidity 23    
Precipitation  
Precipitation 0.00 in - - ()
Sea Level Pressure  
Sea Level Pressure 29.90 in    
Wind  
Wind Speed 1 mph (ENE)    
Max Wind Speed 13 mph    
Max Gust Speed -    
Visibility 10 miles    
Events      
Averages and records for this station are not official NWS values.
T = Trace of Precipitation, MM = Missing Value Source: NWS Daily Summary

Daily Weather History Graph

Daily Weather History Graph

Search for Another Location

Airport:

Trip Planner

Search our weather history database for the weather conditions in past years. The results will help you decide how hot, cold, wet, or windy it might be!

Date:

Astronomy

Oct. 17, 2014 Rise Set
Actual Time 6:32 AM MST 5:51 PM MST
Civil Twilight 6:07 AM MST 6:16 PM MST
Nautical Twilight 5:39 AM MST 6:45 PM MST
Astronomical Twilight 5:10 AM MST 7:13 PM MST
Moon 12:57 AM MST (10/17) 2:24 PM MST (10/17)
Length of Visible Light 12h 08m
Length of Day
11h 18m
Waning Crescent, 32% of the Moon is Illuminated
Oct 17
Waning Crescent
Oct 23
New
Oct 30
First Quarter
Nov 6
Full
Nov 14
Last Quarter

Hourly Weather History & Observations

Time (MST) Temp. Dew Point Humidity Pressure Visibility Wind Dir Wind Speed Gust Speed Precip Events Conditions
12:15 AM 64.4 °F 42.8 °F 45% 29.90 in 10.0 mi Calm Calm - N/A   Clear
12:35 AM 64.4 °F 44.6 °F 49% 29.90 in 10.0 mi Calm Calm - N/A   Clear
12:55 AM 62.6 °F 44.6 °F 52% 29.90 in 10.0 mi Calm Calm - N/A   Clear
1:15 AM 64.4 °F 44.6 °F 49% 29.90 in 10.0 mi Calm Calm - N/A   Clear
1:35 AM 64.4 °F 44.6 °F 49% 29.90 in 10.0 mi Calm Calm - N/A   Clear
1:55 AM 64.4 °F 44.6 °F 49% 29.89 in 10.0 mi Calm Calm - N/A   Clear
2:15 AM 64.4 °F 44.6 °F 49% 29.89 in 10.0 mi Calm Calm - N/A   Clear
2:35 AM 66.2 °F 46.4 °F 49% 29.88 in 10.0 mi Calm Calm - N/A   Clear
2:55 AM 66.2 °F 46.4 °F 49% 29.88 in 10.0 mi Calm Calm - N/A   Clear
3:15 AM 66.2 °F 46.4 °F 49% 29.88 in 10.0 mi Calm Calm - N/A   Clear
3:35 AM 66.2 °F 46.4 °F 49% 29.88 in 10.0 mi Calm Calm - N/A   Clear
3:55 AM 64.4 °F 46.4 °F 52% 29.88 in 10.0 mi Calm Calm - N/A   Clear
4:15 AM 64.4 °F 46.4 °F 52% 29.89 in 10.0 mi Calm Calm - N/A   Clear
4:35 AM 64.4 °F 46.4 °F 52% 29.89 in 10.0 mi Calm Calm - N/A   Clear
4:55 AM 62.6 °F 46.4 °F 55% 29.90 in 10.0 mi Calm Calm - N/A   Clear
5:15 AM 62.6 °F 46.4 °F 55% 29.90 in 10.0 mi Calm Calm - N/A   Clear
5:35 AM 62.6 °F 46.4 °F 55% 29.90 in 10.0 mi Calm Calm - N/A   Clear
5:55 AM 64.4 °F 46.4 °F 52% 29.90 in 10.0 mi Calm Calm - N/A   Clear
6:15 AM 62.6 °F 46.4 °F 55% 29.91 in 10.0 mi Calm Calm - N/A   Clear
6:35 AM 62.6 °F 46.4 °F 55% 29.92 in 10.0 mi Calm Calm - N/A   Clear
6:55 AM 64.4 °F 46.4 °F 52% 29.93 in 10.0 mi Calm Calm - N/A   Clear
7:15 AM 64.4 °F 46.4 °F 52% 29.93 in 10.0 mi Calm Calm - N/A   Clear
7:35 AM 66.2 °F 46.4 °F 49% 29.95 in 10.0 mi Calm Calm - N/A   Clear
7:55 AM 66.2 °F 46.4 °F 49% 29.96 in 10.0 mi Calm Calm - N/A   Clear
8:15 AM 66.2 °F 46.4 °F 49% 29.97 in 10.0 mi Calm Calm - N/A   Clear
8:35 AM 69.8 °F 46.4 °F 43% 29.98 in 10.0 mi Calm Calm - N/A   Clear
8:55 AM 69.8 °F 46.4 °F 43% 29.97 in 10.0 mi Calm Calm - N/A   Clear
9:15 AM 71.6 °F 46.4 °F 41% 29.98 in 10.0 mi Calm Calm - N/A   Clear
9:35 AM 71.6 °F 46.4 °F 41% 29.98 in 10.0 mi East 4.6 mph - N/A   Clear
9:55 AM 71.6 °F 46.4 °F 41% 29.98 in 10.0 mi East 8.1 mph - N/A   Clear
10:15 AM 71.6 °F 48.2 °F 43% 29.95 in 10.0 mi ENE 12.7 mph - N/A   Partly Cloudy
10:35 AM 73.4 °F 46.4 °F 38% 29.94 in 10.0 mi East 10.4 mph - N/A   Partly Cloudy
10:55 AM 73.4 °F 48.2 °F 41% 29.94 in 10.0 mi East 6.9 mph - N/A   Clear
11:15 AM 73.4 °F 46.4 °F 38% 29.94 in 10.0 mi ESE 8.1 mph - N/A   Clear
11:35 AM 75.2 °F 46.4 °F 36% 29.94 in 10.0 mi ESE 8.1 mph - N/A   Clear
11:55 AM 75.2 °F 46.4 °F 36% 29.92 in 10.0 mi East 3.5 mph - N/A   Clear
12:15 PM 77.0 °F 46.4 °F 34% 29.91 in 10.0 mi Calm Calm - N/A   Clear
12:35 PM 78.8 °F 46.4 °F 32% 29.90 in 10.0 mi Calm Calm - N/A   Clear
12:55 PM 82.4 °F 44.6 °F 26% 29.89 in 10.0 mi Calm Calm - N/A   Clear
1:15 PM 82.4 °F 44.6 °F 26% 29.88 in 10.0 mi Calm Calm - N/A   Clear
1:35 PM 84.2 °F 46.4 °F 27% 29.88 in 9.0 mi Calm Calm - N/A   Clear
1:55 PM 84.2 °F 44.6 °F 25% 29.87 in 10.0 mi West 3.5 mph - N/A   Clear
2:15 PM 84.2 °F 46.4 °F 27% 29.86 in 10.0 mi Calm Calm - N/A   Clear
2:35 PM 84.2 °F 44.6 °F 25% 29.87 in 10.0 mi Calm Calm - N/A   Clear
2:55 PM 84.2 °F 44.6 °F 25% 29.86 in 10.0 mi Calm Calm - N/A   Clear
3:15 PM 86.0 °F 44.6 °F 23% 29.86 in 10.0 mi Calm Calm - N/A   Clear
3:35 PM 86.0 °F 44.6 °F 23% 29.86 in 10.0 mi Calm Calm - N/A   Clear
3:55 PM 86.0 °F 44.6 °F 23% 29.86 in 10.0 mi Calm Calm - N/A   Clear
4:15 PM 86.0 °F 44.6 °F 23% 29.86 in 10.0 mi Calm Calm - N/A   Clear
4:35 PM 84.2 °F 44.6 °F 25% 29.86 in 10.0 mi Calm Calm - N/A   Clear
4:55 PM 84.2 °F 44.6 °F 25% 29.86 in 10.0 mi Calm Calm - N/A   Clear
5:15 PM 84.2 °F 42.8 °F 23% 29.86 in 10.0 mi Calm Calm - N/A   Scattered Clouds
5:35 PM 84.2 °F 42.8 °F 23% 29.86 in 10.0 mi Calm Calm - N/A   Scattered Clouds
5:55 PM 82.4 °F 44.6 °F 26% 29.86 in 10.0 mi Calm Calm - N/A   Partly Cloudy
6:15 PM 80.6 °F 46.4 °F 30% 29.87 in 10.0 mi Calm Calm - N/A   Clear
6:35 PM 78.8 °F 46.4 °F 32% 29.87 in 10.0 mi North 4.6 mph - N/A   Clear
6:55 PM 77.0 °F 46.4 °F 34% 29.86 in 10.0 mi North 4.6 mph - N/A   Clear
7:15 PM 75.2 °F 46.4 °F 36% 29.86 in 10.0 mi North 3.5 mph - N/A   Clear
7:35 PM 75.2 °F 46.4 °F 36% 29.86 in 10.0 mi North 4.6 mph - N/A   Clear
7:55 PM 73.4 °F 46.4 °F 38% 29.87 in 10.0 mi Calm Calm - N/A   Clear
8:15 PM 73.4 °F 46.4 °F 38% 29.88 in 4.0 mi Calm Calm - N/A   Partly Cloudy
8:35 PM 73.4 °F 46.4 °F 38% 29.89 in 4.0 mi Calm Calm - N/A   Mostly Cloudy
8:55 PM 73.4 °F 46.4 °F 38% 29.89 in 10.0 mi Calm Calm - N/A   Mostly Cloudy
9:15 PM 73.4 °F 46.4 °F 38% 29.90 in 10.0 mi Calm Calm - N/A   Mostly Cloudy
9:35 PM 71.6 °F 46.4 °F 41% 29.90 in 10.0 mi Calm Calm - N/A   Scattered Clouds
9:55 PM 71.6 °F 46.4 °F 41% 29.90 in 10.0 mi Calm Calm - N/A   Clear
10:15 PM 69.8 °F 46.4 °F 43% 29.89 in 10.0 mi Calm Calm - N/A   Clear
10:35 PM 68.0 °F 46.4 °F 46% 29.89 in 10.0 mi Calm Calm - N/A   Clear
10:55 PM 66.2 °F 46.4 °F 49% 29.89 in 10.0 mi Calm Calm - N/A   Clear
11:15 PM 66.2 °F 46.4 °F 49% 29.89 in 10.0 mi Calm Calm - N/A   Clear
11:35 PM 66.2 °F 46.4 °F 49% 29.88 in 10.0 mi Calm Calm - N/A   Clear
11:55 PM 66.2 °F 46.4 °F 49% 29.88 in 10.0 mi Calm Calm - N/A   Clear